This demonstration page uses our WeatherBlox Daily Observations layout. Learn more.

Left ArrowRight Arrow

41.86663, -103.66717

Hourly Observations for February 28, 2017

Temp ( °F °C ) Dew Point ( °F °C ) Humidity (%) Winds ( mph kmh ) Pressure ( in mb ) Visibility ( mi km ) Precip ( " mm )
12:53 am 00:53 Clear 28 -2.2 21 -6.1 75 75 W 9 15 29.77 1008 10 16 0.00 0.00
1:53 am 01:53 Clear 29 -1.7 18 -7.8 63 63 WNW 16 26 29.76 1008 10 16 0.00 0.00
2:53 am 02:53 Clear 28 -2.2 17 -8.3 63 63 WNW 16 26 29.75 1007 10 16 0.00 0.00
3:53 am 03:53 Mostly Clear 30 -1.1 15 -9.4 54 54 WNW 21 33 29.73 1007 10 16 0.00 0.00
4:53 am 04:53 Clear 28 -2.2 14 -10 56 56 WNW 23 37 29.74 1007 10 16 0.00 0.00
5:53 am 05:53 Clear 27 -2.8 12 -11.1 53 53 WNW 16 26 29.78 1009 10 16 0.00 0.00
6:53 am 06:53 Sunny 26 -3.3 11 -11.7 53 53 WNW 16 26 29.79 1009 10 16 0.00 0.00
7:53 am 07:53 Sunny 26 -3.3 12 -11.1 55 55 W 12 19 29.80 1009 10 16 0.00 0.00
8:53 am 08:53 Sunny 28 -2.2 12 -11.1 51 51 W 13 20 29.81 1010 10 16 0.00 0.00
9:53 am 09:53 Sunny 29 -1.7 12 -11.1 49 49 W 9 15 29.82 1010 10 16 0.00 0.00
10:53 am 10:53 Partly Cloudy 31 -0.6 11 -11.7 43 43 WNW 10 17 29.81 1010 10 16 0.00 0.00
11:53 am 11:53 Sunny 32 0 9 -12.8 38 38 WNW 13 20 29.81 1010 10 16 0.00 0.00
12:53 pm 12:53 Sunny 33 0.6 12 -11.1 42 42 WNW 14 22 29.80 1009 10 16 0.00 0.00
1:53 pm 13:53 Sunny 34 1.1 11 -11.7 38 38 W 16 26 29.80 1009 10 16 0.00 0.00
2:53 pm 14:53 Sunny 35 1.7 14 -10 42 42 W 17 28 29.82 1010 10 16 0.00 0.00
3:53 pm 15:53 Sunny 34 1.1 14 -10 44 44 WNW 10 17 29.84 1010 10 16 0.00 0.00
4:53 pm 16:53 Sunny 32 0 13 -10.6 45 45 W 14 22 29.86 1011 10 16 0.00 0.00
5:53 pm 17:53 Clear 28 -2.2 15 -9.4 58 58 W 13 20 29.92 1013 10 16 0.00 0.00
6:53 pm 18:53 Clear 27 -2.8 13 -10.6 55 55 W 15 24 29.93 1014 10 16 0.00 0.00
7:53 pm 19:53 Clear 24 -4.4 12 -11.1 60 60 W 13 20 29.97 1015 10 16 0.00 0.00
8:53 pm 20:53 Clear 26 -3.3 13 -10.6 57 57 W 15 24 29.97 1015 10 16 0.00 0.00
9:53 pm 21:53 Clear 25 -3.9 13 -10.6 60 60 WNW 15 24 30.00 1016 10 16 0.00 0.00
10:53 pm 22:53 Clear 25 -3.9 12 -11.1 58 58 WNW 16 26 30.00 1016 10 16 0.00 0.00
11:53 pm 23:53 Clear 24 -4.4 12 -11.1 60 60 W 13 20 30.03 1017 10 16 0.00 0.00

Powered by AerisWeather